World > North America > United States > Illinois

Hourly Old Stonington, IL Regional Weather

Feedback E-mail the Weather

Quick WX

Old Stonington, IL Weather Maps

°F °C°F °C
Old Stonington Weather Map
UTC Time: 7/4/2022, 16:09
Your Time:

Old Stonington, IL Regional Weather

Expires:202207041700;;672874
ASUS43 KLOT 041609
RWRIL 

ILLINOIS REGIONAL WEATHER ROUNDUP
NATIONAL WEATHER SERVICE CHICAGO/ROMEOVILLE IL
1100 AM CDT MON JUL 04 2022

NOTE: "FAIR" INDICATES FEW OR NO CLOUDS BELOW 12,000 FEET WITH NO
SIGNIFICANT WEATHER AND/OR OBSTRUCTIONS TO VISIBILITY.

* THESE STATIONS ARE NOT UNDER NWS QUALITY CONTROL. THEY ALSO MAY NOT
  REPORT WEATHER SUCH AS PRECIPITATION OR FOG.


ILZ028>032-037-038-041>044-048-051>054-059>061-041700-
CENTRAL ILLINOIS
  
CITY           SKY/WX    TMP DP  RH WIND       PRES   REMARKS
PONTIAC        MOSUNNY   84  67  57 S12       30.08R HX  87           
BLOOMINGTON    SUNNY     83  70  64 S13       30.08S HX  87           
DECATUR        SUNNY     87  72  60 S10       30.08S HX  93           
PEORIA         PTSUNNY   85  72  65 S14       30.03F HX  91           
LINCOLN*       MOSUNNY   85  73  66 S10       30.06S HX  92           
SPRINGFIELD    MOSUNNY   86  72  62 S10       30.05F HX  92           
TAYLORVILLE    SUNNY     85  73  67 S8        30.08S HX  91           
$$


SKY/WX - Weather  TMP - Temperature  DP - Dew Point  RH - Humidity
WIND - Wind Direction/Speed PRES - Barometric Pressure VSB - Visibility
WCI - Wind Chill Index E13G22 Wind - East Wind 13 mph/Gusts of 22 mph

Trending Headlines

Old Stonington Radar Loop



Old Stonington Quick Facts


National Two Day Weather Forecast


E-mail the Old Stonington Weather Forecast

Voice your opinion or tell us about page issues...